Weather History for Fort Drum, NY

Change the Weather History Date:

Tuesday, October 23, 2012

  Actual Average Record
Temperature  
Mean Temperature 46 °F -  
Max Temperature 54 °F 51 °F 69 °F (2007)
Min Temperature 39 °F 34 °F 23 °F (1997)
Degree Days  
Heating Degree Days 18    
Moisture  
Dew Point 44 °F    
Average Humidity 88    
Maximum Humidity 100    
Minimum Humidity 74    
Precipitation  
Precipitation 0.00 in - - ()
Sea Level Pressure  
Sea Level Pressure 30.12 in    
Wind  
Wind Speed 4 mph (ENE)    
Max Wind Speed 10 mph    
Max Gust Speed -    
Visibility 10 miles    
Events      
Averages and records for this station are not official NWS values.
T = Trace of Precipitation, MM = Missing Value Source: NWS Daily Summary

Daily Weather History Graph

Daily Weather History Graph

Search for Another Location

Airport:

Trip Planner

Search our weather history database for the weather conditions in past years. The results will help you decide how hot, cold, wet, or windy it might be!

Date:

Astronomy

Oct. 23, 2012 Rise Set
Actual Time 7:28 AM EDT 6:05 PM EDT
Civil Twilight 6:58 AM EDT 6:34 PM EDT
Nautical Twilight 6:24 AM EDT 7:08 PM EDT
Astronomical Twilight 5:51 AM EDT 7:41 PM EDT
Moon 2:58 PM EDT 1:05 AM EDT
Length of Visible Light 11h 36m
Length of Day
10h 37m
Waxing Gibbous, 66% of the Moon is Illuminated
Oct 23
Waxing Gibbous
Oct 29
Full
Nov 6
Last Quarter
Nov 13
New
Nov 20
First Quarter

Hourly Weather History & Observations

Time (EDT) Temp. Windchill Dew Point Humidity Pressure Visibility Wind Dir Wind Speed Gust Speed Precip Events Conditions
12:55 AM 44.1 °F 42.5 °F 44.1 °F 100% 30.10 in 10.0 mi SSW 3.5 mph - N/A   Clear
1:55 AM 42.4 °F - 42.4 °F 100% 30.10 in 10.0 mi Calm Calm - N/A   Clear
2:55 AM 41.9 °F - 41.5 °F 99% 30.10 in 10.0 mi Calm Calm - N/A   Clear
3:55 AM 39.7 °F 36.5 °F 39.7 °F 100% 30.10 in 10.0 mi South 4.6 mph - N/A   Clear
4:55 AM 39.9 °F 37.8 °F 39.9 °F 100% 30.10 in 10.0 mi SSE 3.5 mph - N/A   Clear
5:55 AM 42.1 °F - 42.1 °F 100% 30.12 in 10.0 mi Calm Calm - N/A   Overcast
6:55 AM 42.3 °F - 42.3 °F 100% 30.14 in 10.0 mi Calm Calm - N/A   Overcast
7:55 AM 44.2 °F 42.7 °F 44.2 °F 100% 30.15 in 10.0 mi ESE 3.5 mph - N/A   Overcast
8:55 AM 44.4 °F 42.9 °F 44.4 °F 100% 30.16 in 10.0 mi SE 3.5 mph - N/A   Overcast
9:55 AM 47.3 °F - 46.9 °F 99% 30.15 in 10.0 mi East 3.5 mph - N/A   Scattered Clouds
10:55 AM 50.9 °F - 46.6 °F 85% 30.14 in 10.0 mi ENE 4.6 mph - N/A   Clear
11:55 AM 52.2 °F - 46.0 °F 80% 30.14 in 10.0 mi NE 6.9 mph - N/A   Partly Cloudy
12:55 PM 54.0 °F - 46.2 °F 75% 30.12 in 10.0 mi NNE 8.1 mph - N/A   Mostly Cloudy
1:55 PM 53.2 °F - 45.1 °F 74% 30.11 in 10.0 mi North 9.2 mph - N/A   Overcast
2:55 PM 52.9 °F - 45.5 °F 76% 30.10 in 10.0 mi NNE 6.9 mph - N/A   Overcast
3:55 PM 52.0 °F - 45.0 °F 77% 30.10 in 10.0 mi NE 8.1 mph - N/A   Overcast
4:55 PM 51.3 °F - 44.6 °F 78% 30.10 in 10.0 mi NE 10.4 mph - N/A   Overcast
5:55 PM 50.7 °F - 44.4 °F 79% 30.10 in 10.0 mi NE 10.4 mph - N/A   Overcast
6:55 PM 49.8 °F - 43.7 °F 79% 30.12 in 10.0 mi NE 9.2 mph - N/A   Overcast
7:55 PM 49.6 °F - 43.2 °F 78% 30.12 in 10.0 mi ENE 9.2 mph - N/A   Overcast
8:55 PM 48.2 °F - 42.6 °F 81% 30.13 in 10.0 mi ENE 8.1 mph - N/A   Mostly Cloudy
9:55 PM 46.9 °F - 42.8 °F 86% 30.14 in 10.0 mi North 3.5 mph - N/A   Overcast
10:55 PM 46.0 °F 43.9 °F 43.0 °F 89% 30.13 in 10.0 mi NE 4.6 mph - N/A   Mostly Cloudy
11:55 PM 47.3 °F - 43.7 °F 87% 30.13 in 10.0 mi NE 4.6 mph - N/A   Overcast